Location: Auckland
(36.8670°S, 174.7670°E)
Time: 02:00:47
(UTC+12:00)

Vanguard 1 - All Passes

Search period start: 17 July 2019 00:00
Search period end: 27 July 2019 00:00
Orbit: 653 x 3830 km, 34.3° (Epoch: 15 July)

Date Brightness Start Highest point End Pass type
(mag) Time Alt. Az. Time Alt. Az. Time Alt. Az.
17 Jul - 06:32:45 10° NNW 06:39:15 20° NNE 06:43:54 10° ENE visible
17 Jul - 08:53:22 10° WNW 08:59:56 46° NNE 09:04:28 10° E daylight
17 Jul - 11:14:58 10° W 11:19:48 65° N 11:24:19 10° ENE daylight
17 Jul - 13:35:26 10° W 13:39:30 32° NNW 13:44:43 10° NE daylight
17 Jul - 15:59:06 10° NNW 16:00:00 10° NNW 16:00:57 10° NNW daylight
18 Jul - 06:52:39 10° NNW 07:00:26 27° NNE 07:05:34 10° ENE visible
18 Jul - 09:14:24 10° WNW 09:20:55 56° N 09:25:29 10° E daylight
18 Jul - 11:36:04 10° W 11:40:45 59° N 11:45:18 10° ENE daylight
18 Jul - 13:56:44 10° WNW 14:00:28 24° NNW 14:05:10 10° NNE daylight
19 Jul - 04:54:21 10° N 04:59:52 14° NNE 05:04:14 10° NE visible
19 Jul - 07:13:05 10° NW 07:21:33 35° NNE 07:26:52 10° E daylight
19 Jul - 09:35:35 10° WNW 09:41:55 64° N 09:46:26 10° E daylight
19 Jul - 11:57:10 10° W 12:01:41 49° NNW 12:06:14 10° ENE daylight
19 Jul - 14:18:25 10° WNW 14:21:27 16° NNW 14:25:05 10° NNE daylight
20 Jul - 05:12:50 10° NNW 05:21:12 20° NNE 05:27:00 10° ENE visible
20 Jul - 07:33:52 10° NW 07:42:39 45° NNE 07:47:58 10° E daylight
20 Jul - 09:56:48 10° W 10:02:54 68° N 10:07:23 10° E daylight
20 Jul - 12:18:20 10° W 12:22:34 38° NNW 12:27:00 10° NE daylight
20 Jul - 14:41:39 10° NW 14:42:27 10° NNW 14:43:18 10° NNW daylight
21 Jul - 05:32:26 10° NNW 05:42:28 27° NNE 05:48:52 10° ENE visible
21 Jul - 07:54:56 10° WNW 08:03:42 54° NNE 08:08:59 10° E daylight
21 Jul - 10:18:02 10° W 10:23:53 66° N 10:28:19 10° ENE daylight
21 Jul - 12:39:35 10° W 12:43:27 27° NNW 12:47:33 10° NE daylight
22 Jul - 03:34:35 10° N 03:41:07 14° NNE 03:46:21 10° ENE visible
22 Jul - 05:52:40 10° NW 06:03:42 35° NNE 06:10:17 10° E visible
22 Jul - 08:16:09 10° WNW 08:24:45 63° N 08:29:56 10° E daylight
22 Jul - 10:39:17 10° W 10:44:50 59° N 10:49:12 10° ENE daylight
22 Jul - 13:01:06 10° WNW 13:04:18 19° NNW 13:07:44 10° NNE daylight
23 Jul - 03:52:24 10° N 04:02:31 20° NNE 04:09:41 10° ENE visible
23 Jul - 06:13:20 10° NW 06:24:53 44° NNE 06:31:28 10° E visible
23 Jul - 08:37:30 10° WNW 08:45:47 69° N 08:50:51 10° E daylight
23 Jul - 11:00:31 10° W 11:05:44 48° NNW 11:10:01 10° ENE daylight
23 Jul - 13:23:22 10° NW 13:25:10 12° NNW 13:27:03 10° N daylight
24 Jul - 04:11:35 10° NNW 04:23:53 27° NNE 04:31:50 10° E visible
24 Jul - 06:34:20 10° NW 06:46:02 53° NNE 06:52:32 10° E visible
24 Jul - 08:58:54 10° W 09:06:49 71° N 09:11:45 10° E daylight
24 Jul - 11:21:48 10° W 11:26:35 36° NNW 11:30:41 10° NE daylight
25 Jul - 02:15:17 10° NNE 02:21:44 13° NE 02:27:13 10° ENE visible
25 Jul - 04:31:31 10° NNW 04:45:12 35° NNE 04:53:27 10° E visible
25 Jul - 06:55:35 10° WNW 07:07:09 62° NNE 07:13:30 10° E visible
25 Jul - 09:20:18 10° W 09:27:49 68° N 09:32:38 10° ENE daylight
25 Jul - 11:43:13 10° W 11:47:22 26° NNW 11:51:05 10° NNE daylight
26 Jul - 02:31:56 10° N 02:43:12 19° NNE 02:51:36 10° ENE visible
26 Jul - 04:51:57 10° NW 05:06:29 43° NNE 05:14:47 10° E visible
26 Jul - 07:17:00 10° WNW 07:28:16 69° N 07:34:26 10° E daylight
26 Jul - 09:41:41 10° W 09:48:47 61° NNW 09:53:29 10° ENE daylight
26 Jul - 12:04:56 10° WNW 12:08:06 17° NNW 12:11:04 10° N daylight
